Regional Weather Roundup
Issued by NWS Grand Forks, ND

Home | Current Version | Previous Version | Text Only | Print | Product List | Glossary Off
Versions: 1 2 3 4 5 6 7 8 9 10 11 12 13 14 15 16 17 18 19 20 21 22 23 24 25 26 27 28 29 30 31 32 33 34 35 36 37 38 39 40 41 42 43 44 45 46 47 48 49 50

000
ASUS43 KFGF 210810
RWRFGF
PRAIRIE TO PINES  WEATHER ROUNDUP
NATIONAL WEATHER SERVICE EASTERN NORTH DAKOTA/GRAND FORKS ND
300 AM CDT TUE OCT 21 2014

 **SATELLITE DATA USED TO AUGMENT SKY COVER AT AUTOMATED STATIONS**
 *****  WEATHER ACROSS EASTERN NORTH DAKOTA  *****

CITY           SKY/WX    TMP DP  RH WIND       PRES   REMARKS
GRAND FORKS    CLEAR     40  36  86 S9        30.05S
GRAND FRKS AFB CLEAR     37  37  99 S7        30.05S
GRAND FRKS NWS   N/A     39 N/A N/A S10         N/A
DEVILS LAKE    CLEAR     46  36  66 SE13      29.96F
FARGO          CLEAR     45  38  76 SE12      30.06R
WAHPETON ARPT  SUNNY     41  34  75 SE8       30.08S
$$

 ***** WEATHER ACROSS CENTRAL AND WESTERN NORTH DAKOTA  *****

CITY           SKY/WX    TMP DP  RH WIND       PRES   REMARKS
BISMARCK       CLEAR     55  34  45 E12       29.89F
MINOT          CLEAR     45  34  65 E6        29.86S
JAMESTOWN      CLEAR     44  38  79 SE9       30.00R
MINOT AFB      CLEAR     42  37  80 SE10      29.85F
GARRISON         N/A     49  35  58 SE7       29.87F
WILLISTON      CLEAR     40  36  86 CALM      29.79F
DICKINSON      CLEAR     46  37  71 SE10      29.81F
HETTINGER      CLEAR     44  37  76 E7        29.84F
$$

 *****  OTHER AIRPORT OBSERVATIONS IN OUR AREA  *****

CITY           SKY/WX    TMP DP  RH WIND       PRES   REMARKS
WALHALLA       FAIR      43  39  87 S12G17    30.02S
GRAFTON AIRPOR FAIR      37  36  93 SE9       30.04F
VALLEY CITY AR FAIR      45  39  81 S7        30.03S
CANDO          FAIR      43  41  93 SE9       29.97S
CAVALIER APRT  FAIR      41  37  87 S7        30.04S
GWINNER        SUNNY     45  37  76 SE9       30.04S
ROLLA          FAIR      43  41  93 S10       29.96S
 ***** THE ABOVE OBSERVATIONS ARE NON NWS ARE NOT QUALITY
       CONTROLLED AND MAY MIS-REPORT RAIN FOR SNOW...
$$

  *****  WEATHER ACROSS NORTHERN MINNESOTA  *****

CITY           SKY/WX    TMP DP  RH WIND       PRES   REMARKS
FLAG ISLAND    CLEAR     43  37  81 SE14G22   30.11S
WARROAD        CLEAR     36  32  87 SE5       30.12R
ROSEAU         CLEAR     37  34  87 SE7       30.10F
HALLOCK        CLEAR     39  37  93 SE9       30.06S
THF RVR FALLS  CLEAR     37  36  93 SE8       30.09R
BAUDETTE       CLEAR     34  32  92 SE6       30.14R
WASKISH        CLEAR     28  28 100 CALM      30.14R
CROOKSTON      CLEAR     39  37  93 SE10      30.08S
STEPHEN NDAWN    N/A     39  37  93 SE9         N/A
GREENBUSH NDAW   N/A     37  37 100 SE7         N/A
$$
  *****  WEATHER ACROSS CENTRAL AND WEST MINNESOTA  *****

CITY           SKY/WX    TMP DP  RH WIND       PRES   REMARKS
FOSSTON        CLEAR     39  36  87 SE10      30.10S
BEMIDJI        CLEAR     34  34  99 SE3       30.12S
PARK RAPIDS    CLEAR     36  35  96 E5        30.12R
ELBOW LAKE     FAIR      42  38  85 SE9       30.09R
WADENA         CLEAR     36  34  93 E5        30.11S
DETROIT LAKES  CLEAR     41  37  87 SE9       30.10F
MOORHEAD       CLEAR     45  43  93 SE8       30.08R
FERGUS FALLS   CLEAR     45  37  76 SE9       30.10S
MORRIS MN      CLEAR     41  37  87 SE7       30.09R
STAPLES        CLEAR     34  34 100 CALM      30.12S
$$
  *****  WEATHER ELSEWHERE ACROSS MINNESOTA  *****

CITY           SKY/WX    TMP DP  RH WIND       PRES   REMARKS
DULUTH         CLOUDY    43  36  76 E12       30.15R
INTRNTL FALLS  CLOUDY    41  34  76 SE8       30.16R
ELY            CLOUDY    39  34  81 E5        30.17R
CLOQUET        CLOUDY    45  37  76 E13       30.15R
WHEATON        CLEAR     32  28  86 SE9       30.09S WCI  24
BRAINERD       FOG       30  30 100 CALM      30.15R VSB 1/2
HIBBING        MOCLDY    40  33  76 CALM      30.15R
ALEXANDRIA     CLEAR     40  37  89 E8        30.12R
SAINT CLOUD    CLEAR     41  36  82 E3        30.13R
MINNEAPOLIS    CLEAR     41  39  93 N3        30.14R
$$

  *****  WEATHER ACROSS SOUTH DAKOTA  *****

CITY           SKY/WX    TMP DP  RH WIND       PRES   REMARKS
SIOUX FALLS    CLEAR     40  35  83 NE5       30.07R
BROOKINGS      NOT AVBL
WATERTOWN      CLEAR     44  36  73 SE5       30.06R
HURON          CLEAR     47  36  65 SE8       30.02S
SISSETON         N/A     36  33  89 S5        30.05S
ABERDEEN       CLEAR     46  39  76 SE7       30.01S
MITCHELL       CLEAR     45  36  70 SE6       30.04R
PIERRE         CLEAR     53  39  59 SE12      29.90S
MOBRIDGE       CLEAR     57  36  45 SE18      29.87F
RAPID CITY     CLEAR     51  41  68 SE13      29.86F
$$

  *****  SOME WEATHER IN NEARBY STATES *****

CITY           SKY/WX    TMP DP  RH WIND       PRES   REMARKS
GLASGOW MT     CLEAR     48  37  65 E15       29.71F
GREAT FALLS MT CLEAR     62  34  35 S17       29.68S
CHEYENNE WY    CLEAR     41  33  73 NW5       30.07S
SCOTTSBLUFF NE CLEAR     57  41  55 SE7       29.99S
OMAHA NE       CLEAR     45  41  86 CALM      30.09R
DES MOINES IA  CLEAR     46  40  79 CALM      30.08R
DAVENPORT IA   CLEAR     40  37  89 NE5       30.08R
CHICAGO IL     CLOUDY    51  42  71 N10       30.01S
EAU CLAIRE WI  CLEAR     34  33  96 N3        30.12R
LA CROSSE WI   CLEAR     42  38  85 CALM      30.11R
$$

  *****  SOME NATIONAL WEATHER *****

CITY           SKY/WX    TMP DP  RH WIND       PRES   REMARKS
LA GUARDIA NY  CLOUDY    57  44  62 CALM      29.91F
RALEIGH NC     CLOUDY    57  50  77 CALM      29.92F
ATLANTA GA     CLEAR     55  50  83 NW7       30.00S
NEW ORLEANS LA CLEAR     60  54  80 CALM      30.00S
OKLAHOMA CITY  CLEAR     61  58  90 S5        30.05S
ALBUQUERQUE NM PTCLDY    54  47  77 E10       30.17F
SALT LAKE CITY MOCLDY    64  40  41 SE13      29.90S
LOS ANGELES CA MOCLDY    67  64  90 N3        29.91R
BOISE ID       CLOUDY    55  45  68 N13       29.87R
SEATTLE WA     MOCLDY    55  51  86 SE6       29.82R
$$

*** WEATHER ACROSS MANITOBA...SASKATCHEWAN AND ONTARIO ***
                ***ONTARIO***

CITY           SKY/WX    TMP DP  RH WIND       PRES   REMARKS
GERALDTON      CLEAR     27  27 100 CALM      30.21R
THUNDER BAY    MOCLDY    32  30  93 NW5       30.22R
SIOUX LOOKOUT  CLOUDY    37  34  87 S6        30.18S
TORONTO        CLOUDY    50  48  93 W6        29.78S
BIG TROUT LK   CLOUDY    34  30  86 S15       30.16F WCI  24
PICKLE LAKE    NOT AVBL
DRYDEN         CLOUDY    37  32  81 SE10G17   30.16S
KENORA         CLEAR     39  36  87 SE8       30.13
$$
                *** MANITOBA***

CITY           SKY/WX    TMP DP  RH WIND       PRES   REMARKS
BRANDON        CLEAR     36  36 100 E8        29.92S
DAUPHIN        CLEAR     37  36  93 VRB2      29.84S
ISLAND LAKE    CLOUDY    37  36  93 S12G18    30.04F
PILOT MOUND      N/A     43  37  81 SE14        N/A
THE PAS        CLEAR     43  41  93 SE15G23   29.71F
THOMPSON       PTCLDY    37  36  93 S7        29.83F
WINNIPEG       CLEAR     41  36  81 SE16      30.04S
LYNN LAKE      CLOUDY    39  37  93 S10G17    29.67F
CHURCHILL      CLOUDY    34  34 100 S17G28    29.85F WCI  23
GILLAM         CLOUDY    36  34  93 S16       29.95F
$$
                ***SASKATCHEWAN***

CITY           SKY/WX    TMP DP  RH WIND       PRES   REMARKS
ESTEVAN        NOT AVBL
KINDERSLEY     PTCLDY    46  36  66 S7        29.60F
LLOYDMINSTER   NOT AVBL
PRINCE ALBERT  CLEAR     37  36  93 E3        29.60S
REGINA         CLEAR     45  41  87 SE15G22   29.72F
YORKTON        CLEAR     46  37  71 S13       29.76S
N. BATTLEFORD  CLEAR     45  36  70 SE7       29.58R
LA RONGE       CLEAR     36  34  93 E3        29.57S
SASKATOON      CLEAR     48  41  76 S7        29.62S
SWIFT CURRENT  CLEAR     50  41  71 S12G17    29.66F
$$
NOTE: THESE ARE AUTOMATED STATIONS WITH LIMITED QUALITY CONTROL
      "FAIR" INDICATES FEW OR NO CLOUDS BELOW 12,000 FEET WITH NO
      SIGNIFICANT WEATHER AND/OR OBSTRUCTIONS TO VISIBILITY.
      SKY/WX - SKY CONDITION AND SIGNIFICANT WEATHER.
      TMP - AIR TEMPERATURE.    DP   - DEWPOINT TEMPERATURE.
      RH  - RELATIVE HUMIDITY.  PRES - PRESSURE.
      HX  - HEAT INDEX.         WCI  - WIND CHILL INDEX.
$


USA.gov is the U.S. government's official web portal to all federal, state and local government web resources and services.